(247369) = 2001 XH61

Discovered at Socorro on 2001-12-10 by LINEAR.

Orbit

Orbit type: Main Belt

Note: WebGL enabled browser required.

epoch2024-03-31.0
epoch JD2460400.5
perihelion date2021-05-28.91520
perihelion JD2459363.41520
argument of perihelion (°)301.50410
ascending node (°)88.22303
inclination (°)17.10359
eccentricity0.2149038
perihelion distance (AU)2.2930739
Tisserand w.r.t. Jupiter3.2
ΔV w.r.t. Earth (km/sec)10.8
semimajor axis (AU)2.9207555
mean anomaly (°)204.77435
mean daily motion (°/day)0.19745190
aphelion distance (AU)3.548
period (years)4.99
P-vector [x]0.83070823
P-vector [y]0.55576741
P-vector [z]-0.03234843
Q-vector [x]-0.47277060
Q-vector [y]0.73494866
Q-vector [z]0.48614651
absolute magnitude15.97
phase slope0.15
uncertainty0
referenceE2024-H23
observations used220
oppositions14
arc length (days)8186
first opposition used2001
last opposition used2024
residual rms (arc-secs)0.80
perturbers coarse indicatorM-v
perturbers precise indicator003Ek
first observation date used2001-11-17.0
last observation date used2024-04-16.0
computer nameMPCLINUX
JD of orbit computation2456819.587106
perihelion JD uncertainty (days)2.4551E-04
argument of perihelion uncertainty (°)4.9083E-05
ascending node uncertainty (°)2.6458E-05
inclination uncertainty (°)1.9964E-05
eccentricity uncertainty 1.4944E-07
perihelion distance uncertainty (AU)4.3734E-07
Minimum Orbit Intersection Distances (in AU)
for orbit epoch: 2460400.5, reference: E2024-H23
Mercury1.96984
Venus1.59148
Earth1.35001
Mars0.8905
Jupiter2.01568
Saturn6.25825
Uranus15.178
Neptune27.1939

Observations

217 total observations over interval: 2001 11 17.36026 – 2023 04 15.292326
These data are available for download (format description).

Date (UT) J2000 RA J2000 Dec Magn Location Ref
2001 11 17.36026 05 41 57.79 +16 02 18.3 19.4   704 – Lincoln Laboratory ETS, New Mexico MPS 46820
2001 11 17.37476 05 41 57.15 +16 02 23.3 19.7   704 – Lincoln Laboratory ETS, New Mexico MPS 46820
2001 11 17.38956 05 41 56.52 +16 02 28.1 20.4   704 – Lincoln Laboratory ETS, New Mexico MPS 46820
2001 11 17.41813 05 41 55.28 +16 02 38.7 19.3   704 – Lincoln Laboratory ETS, New Mexico MPS 46820
2001 12 10.30650 05 20 35.80 +18 35 10.5 19.3   704 – Lincoln Laboratory ETS, New Mexico MPS 45163
2001 12 10.32154 05 20 34.78 +18 35 16.7 19.4   704 – Lincoln Laboratory ETS, New Mexico MPS 45163
2001 12 10.33660 05 20 33.79 +18 35 23.8 19.4   704 – Lincoln Laboratory ETS, New Mexico MPS 45163
2001 12 10.35165 05 20 32.73 +18 35 29.1 19.5   704 – Lincoln Laboratory ETS, New Mexico MPS 45163
2001 12 14.29331 05 16 19.22 +19 03 53.7 19.8   704 – Lincoln Laboratory ETS, New Mexico MPS 45163
2001 12 14.30845 05 16 18.11 +19 03 59.5 19.7   704 – Lincoln Laboratory ETS, New Mexico MPS 45163
2001 12 14.32359 05 16 17.14 +19 04 05.4 19.7   704 – Lincoln Laboratory ETS, New Mexico MPS 45163
2001 12 14.35393 05 16 15.10 +19 04 18.1 19.9   704 – Lincoln Laboratory ETS, New Mexico MPS 45163
2001 12 17.29286 05 13 08.05 +19 25 32.2 19.0   704 – Lincoln Laboratory ETS, New Mexico MPS 45163
2001 12 17.30797 05 13 07.08 +19 25 38.4 19.3   704 – Lincoln Laboratory ETS, New Mexico MPS 45163
2001 12 17.32311 05 13 06.09 +19 25 45.6 19.2   704 – Lincoln Laboratory ETS, New Mexico MPS 45163
2001 12 17.33825 05 13 05.10 +19 25 52.2 19.7   704 – Lincoln Laboratory ETS, New Mexico MPS 45163
2001 12 17.35339 05 13 04.16 +19 25 57.8 20.2   704 – Lincoln Laboratory ETS, New Mexico MPS 45163
2001 12 19.38696 05 10 56.85 +19 40 37.1 19.8   704 – Lincoln Laboratory ETS, New Mexico MPS 45163
2001 12 19.40267 05 10 55.87 +19 40 44.4 19.5   704 – Lincoln Laboratory ETS, New Mexico MPS 45163
2001 12 19.41837 05 10 54.88 +19 40 50.1 19.7   704 – Lincoln Laboratory ETS, New Mexico MPS 45163
2001 12 19.43414 05 10 53.80 +19 40 56.6 19.7   704 – Lincoln Laboratory ETS, New Mexico MPS 45163
2001 12 20.24538 05 10 04.36 +19 46 46.4 20.0   704 – Lincoln Laboratory ETS, New Mexico MPS 46820
2001 12 20.26063 05 10 03.43 +19 46 53.9 19.9   704 – Lincoln Laboratory ETS, New Mexico MPS 46820
2001 12 20.27591 05 10 02.41 +19 47 00.1 19.6   704 – Lincoln Laboratory ETS, New Mexico MPS 46820
2001 12 20.29164 05 10 01.45 +19 47 07.3 19.7   704 – Lincoln Laboratory ETS, New Mexico MPS 46820
2002 01 08.24230 04 54 10.87 +21 58 23.3 21.1   704 – Lincoln Laboratory ETS, New Mexico MPS 46820
2002 01 08.25740 04 54 10.33 +21 58 29.5 20.1   704 – Lincoln Laboratory ETS, New Mexico MPS 46820
2002 01 08.27257 04 54 09.77 +21 58 35.4 20.2   704 – Lincoln Laboratory ETS, New Mexico MPS 46820
2002 01 08.28770 04 54 09.21 +21 58 40.8 20.0   704 – Lincoln Laboratory ETS, New Mexico MPS 46820
2002 01 13.15070 04 51 36.88 +22 30 17.6 19.9   704 – Lincoln Laboratory ETS, New Mexico MPS 46820
2002 01 13.16587 04 51 36.49 +22 30 24.6 20.2   704 – Lincoln Laboratory ETS, New Mexico MPS 46820
2002 01 13.18104 04 51 36.06 +22 30 30.2 20.2   704 – Lincoln Laboratory ETS, New Mexico MPS 46820
2002 01 13.19621 04 51 35.56 +22 30 35.9 20.0   704 – Lincoln Laboratory ETS, New Mexico MPS 46820
2002 01 13.21139 04 51 35.18 +22 30 41.9 20.2   704 – Lincoln Laboratory ETS, New Mexico MPS 46820
2002 01 15.19046 04 50 46.04 +22 43 16.6 20.4   704 – Lincoln Laboratory ETS, New Mexico MPS 46820
2002 01 15.20555 04 50 45.65 +22 43 23.2 20.2   704 – Lincoln Laboratory ETS, New Mexico MPS 46820
2002 01 15.22064 04 50 45.29 +22 43 28.8 19.8   704 – Lincoln Laboratory ETS, New Mexico MPS 46820
2006 11 20.31321 05 55 34.50 +17 42 09.6 18.6 C 704 – Lincoln Laboratory ETS, New Mexico MPS 294379
2006 11 20.32550 05 55 33.97 +17 42 12.5 18.8 C 704 – Lincoln Laboratory ETS, New Mexico MPS 294379
2006 11 20.33781 05 55 33.37 +17 42 12.4 18.4 C 704 – Lincoln Laboratory ETS, New Mexico MPS 294379
2006 11 20.36275 05 55 32.47 +17 42 25.6 19.9 C 704 – Lincoln Laboratory ETS, New Mexico MPS 294379
2006 11 29.32032 05 48 21.83 +18 42 55.5 19.2   704 – Lincoln Laboratory ETS, New Mexico MPS 191913
2006 11 29.33324 05 48 21.09 +18 43 01.5 19.1   704 – Lincoln Laboratory ETS, New Mexico MPS 191913
2006 11 29.34618 05 48 20.41 +18 43 05.7 19.8   704 – Lincoln Laboratory ETS, New Mexico MPS 191913
2006 11 29.37213 05 48 18.93 +18 43 17.5 19.6   704 – Lincoln Laboratory ETS, New Mexico MPS 191913
2006 12 13.26380 05 34 14.86 +20 24 43.4 19.2   704 – Lincoln Laboratory ETS, New Mexico MPS 191913
2006 12 13.27691 05 34 13.99 +20 24 48.2 19.5   704 – Lincoln Laboratory ETS, New Mexico MPS 191913
2006 12 13.28977 05 34 13.09 +20 24 55.5 19.4   704 – Lincoln Laboratory ETS, New Mexico MPS 191913
2006 12 13.30268 05 34 12.25 +20 25 00.7 19.1   704 – Lincoln Laboratory ETS, New Mexico MPS 191913
2006 12 13.31561 05 34 11.40 +20 25 06.9 19.2   704 – Lincoln Laboratory ETS, New Mexico MPS 191913
2006 12 15.26017 05 32 05.76 +20 39 32.0 18.4   704 – Lincoln Laboratory ETS, New Mexico MPS 191913
2006 12 15.27341 05 32 04.94 +20 39 38.4 19.1   704 – Lincoln Laboratory ETS, New Mexico MPS 191913
2006 12 15.31299 05 32 02.24 +20 39 55.7 19.4   704 – Lincoln Laboratory ETS, New Mexico MPS 191913
2006 12 15.36094 05 31 58.83 +20 40 14.2 19.4 V 703 – Catalina Sky Survey MPS 191913
2006 12 15.36464 05 31 58.69 +20 40 15.7 17.5 V 703 – Catalina Sky Survey MPS 191913
2006 12 15.36833 05 31 58.40 +20 40 17.7 18.2 V 703 – Catalina Sky Survey MPS 191913
2006 12 15.37199 05 31 58.15 +20 40 19.7 18.8 V 703 – Catalina Sky Survey MPS 191913
2006 12 22.25522 05 24 37.76 +21 30 41.9 19.6   704 – Lincoln Laboratory ETS, New Mexico MPS 191913
2006 12 22.26784 05 24 36.94 +21 30 47.0 19.1   704 – Lincoln Laboratory ETS, New Mexico MPS 191913
2006 12 22.28045 05 24 36.18 +21 30 52.6 19.4   704 – Lincoln Laboratory ETS, New Mexico MPS 191913
2006 12 22.29316 05 24 35.34 +21 30 57.8 19.7   704 – Lincoln Laboratory ETS, New Mexico MPS 191913
2006 12 27.23194 05 19 36.19 +22 06 07.4 18.5 V G96 – Mt. Lemmon Survey MPS 191913
2006 12 27.23867 05 19 35.79 +22 06 10.2 18.6 V G96 – Mt. Lemmon Survey MPS 191913
2006 12 27.24545 05 19 35.40 +22 06 13.0 18.7 V G96 – Mt. Lemmon Survey MPS 191913
2006 12 27.25227 05 19 34.93 +22 06 16.5 18.5 V G96 – Mt. Lemmon Survey MPS 191913
2007 01 08.31170 05 09 23.97 +23 26 58.9 19.2 V G96 – Mt. Lemmon Survey MPS 195452
2007 01 08.31798 05 09 23.72 +23 27 01.2 19.1 V G96 – Mt. Lemmon Survey MPS 195452
2007 01 08.32470 05 09 23.47 +23 27 03.9 19.5 V G96 – Mt. Lemmon Survey MPS 195452
2007 01 08.33162 05 09 23.11 +23 27 06.8 18.9 V G96 – Mt. Lemmon Survey MPS 195452
2007 01 16.16492 05 04 51.16 +24 15 11.5 19.7 V G96 – Mt. Lemmon Survey MPS 196302
2007 01 16.17057 05 04 50.98 +24 15 13.8 19.2 V G96 – Mt. Lemmon Survey MPS 196302
2007 01 16.17608 05 04 50.84 +24 15 15.4 19.2 V G96 – Mt. Lemmon Survey MPS 196302
2007 01 16.18170 05 04 50.66 +24 15 17.7 19.3 V G96 – Mt. Lemmon Survey MPS 196302
2009 05 13.32138 15 24 59.68 -03 12 41.0 20.4 V G96 – Mt. Lemmon Survey MPS 341649
2009 05 13.33154 15 24 59.18 -03 12 41.1 20.3 V G96 – Mt. Lemmon Survey MPS 341649
2009 05 13.34168 15 24 58.68 -03 12 41.4 19.7 V G96 – Mt. Lemmon Survey MPS 341649
2009 05 13.35177 15 24 58.14 -03 12 40.4 20.9 V G96 – Mt. Lemmon Survey MPS 341649
2010 04 21.032039 20 17 33.09 -23 59 12.0   C51 – WISE MPS 341649
2010 04 21.164344 20 17 40.74 -23 59 28.3   C51 – WISE MPS 341649
2010 04 21.561257 20 18 02.87 -24 00 08.8   C51 – WISE MPS 341649
2010 04 21.627472 20 18 06.48 -24 00 16.9   C51 – WISE MPS 341649
2010 04 21.693561 20 18 10.22 -24 00 23.5   C51 – WISE MPS 341649
2010 04 21.759777 20 18 13.91 -24 00 31.8   C51 – WISE MPS 341649
2010 04 21.825865 20 18 17.62 -24 00 39.1   C51 – WISE MPS 341649
2010 04 21.825993 20 18 17.61 -24 00 39.4   C51 – WISE MPS 341649
2010 04 21.892081 20 18 21.19 -24 00 44.1   C51 – WISE MPS 341649
2010 04 22.024385 20 18 28.65 -24 01 01.2   C51 – WISE MPS 341649
2010 04 22.156690 20 18 35.91 -24 01 15.1   C51 – WISE MPS 341649
2010 06 22.40729 20 40 05.16 -29 27 34.1 20.1 V G96 – Mt. Lemmon Survey MPS 341649
